TimeCDT,TemperatureF,Dew PointF,Humidity,Sea Level PressureIn,VisibilityMPH,Wind Direction,Wind SpeedMPH,Gust SpeedMPH,PrecipitationIn,Events,Conditions,WindDirDegrees,DateUTC
12:15 AM,75.2,66.2,73,29.79,10.0,SSE,4.6,-,N/A,,Scattered Clouds,160,2013-06-25 05:15:00
12:35 AM,75.2,66.2,73,29.78,10.0,South,8.1,-,N/A,,Clear,170,2013-06-25 05:35:00
12:55 AM,77.0,66.2,69,29.79,10.0,SSW,6.9,-,N/A,,Clear,200,2013-06-25 05:55:00
1:15 AM,77.0,66.2,69,29.78,10.0,South,4.6,-,N/A,,Clear,180,2013-06-25 06:15:00
1:35 AM,75.2,66.2,73,29.78,10.0,Calm,Calm,-,N/A,,Clear,0,2013-06-25 06:35:00
1:55 AM,73.4,66.2,78,29.78,10.0,SSE,3.5,-,N/A,,Clear,160,2013-06-25 06:55:00
2:15 AM,73.4,66.2,78,29.79,10.0,Calm,Calm,-,N/A,,Scattered Clouds,0,2013-06-25 07:15:00
2:35 AM,73.4,66.2,78,29.79,10.0,Calm,Calm,-,N/A,,Scattered Clouds,0,2013-06-25 07:35:00
2:55 AM,73.4,66.2,78,29.79,10.0,Calm,Calm,-,N/A,,Scattered Clouds,0,2013-06-25 07:55:00
3:15 AM,73.4,66.2,78,29.78,10.0,ESE,3.5,-,N/A,,Scattered Clouds,110,2013-06-25 08:15:00
3:35 AM,71.6,66.2,83,29.79,10.0,Calm,Calm,-,N/A,,Scattered Clouds,0,2013-06-25 08:35:00
3:55 AM,73.4,66.2,78,29.81,10.0,Calm,Calm,-,N/A,,Scattered Clouds,0,2013-06-25 08:55:00
4:15 AM,71.6,66.2,83,29.80,10.0,North,4.6,-,N/A,,Scattered Clouds,350,2013-06-25 09:15:00
4:35 AM,71.6,66.2,83,29.78,10.0,SSE,5.8,-,N/A,,Scattered Clouds,150,2013-06-25 09:35:00
4:55 AM,71.6,64.4,78,29.77,10.0,SSW,3.5,-,N/A,,Scattered Clouds,200,2013-06-25 09:55:00
5:15 AM,71.6,64.4,78,29.76,10.0,South,5.8,-,N/A,,Scattered Clouds,170,2013-06-25 10:15:00
5:35 AM,69.8,64.4,83,29.76,10.0,SSE,6.9,-,N/A,,Scattered Clouds,150,2013-06-25 10:35:00
5:55 AM,71.6,64.4,78,29.77,10.0,SE,6.9,-,N/A,,Scattered Clouds,140,2013-06-25 10:55:00
6:15 AM,71.6,64.4,78,29.80,10.0,Calm,Calm,-,N/A,,Clear,0,2013-06-25 11:15:00
6:35 AM,71.6,64.4,78,29.79,10.0,SSE,6.9,-,N/A,,Clear,150,2013-06-25 11:35:00
6:55 AM,71.6,64.4,78,29.78,10.0,South,3.5,-,N/A,,Clear,180,2013-06-25 11:55:00
7:15 AM,71.6,64.4,78,29.79,10.0,SSE,5.8,-,N/A,,Clear,150,2013-06-25 12:15:00
7:35 AM,71.6,64.4,78,29.81,10.0,Calm,Calm,-,N/A,,Clear,0,2013-06-25 12:35:00
7:55 AM,71.6,64.4,78,29.83,10.0,Calm,Calm,-,N/A,,Clear,0,2013-06-25 12:55:00
8:15 AM,71.6,66.2,83,29.84,10.0,North,3.5,-,N/A,,Clear,10,2013-06-25 13:15:00
8:35 AM,71.6,66.2,83,29.82,7.0,Calm,Calm,-,N/A,Rain,Light Rain,0,2013-06-25 13:35:00
8:55 AM,71.6,66.2,83,29.81,7.0,South,5.8,-,N/A,Rain,Light Rain,190,2013-06-25 13:55:00
9:15 AM,73.4,66.2,78,29.80,10.0,SSW,6.9,-,N/A,,Clear,200,2013-06-25 14:15:00
9:35 AM,73.4,66.2,78,29.81,10.0,Calm,Calm,-,N/A,,Clear,0,2013-06-25 14:35:00
9:55 AM,75.2,68.0,78,29.80,10.0,Calm,Calm,-,N/A,,Clear,0,2013-06-25 14:55:00
10:15 AM,78.8,64.4,61,29.80,10.0,Calm,Calm,-,N/A,,Clear,0,2013-06-25 15:15:00
10:35 AM,78.8,64.4,61,29.80,10.0,ESE,4.6,-,N/A,,Clear,120,2013-06-25 15:35:00
10:55 AM,80.6,66.2,61,29.80,10.0,SE,6.9,-,N/A,,Clear,140,2013-06-25 15:55:00
11:15 AM,80.6,66.2,61,29.79,10.0,SE,8.1,-,N/A,,Clear,140,2013-06-25 16:15:00
11:35 AM,80.6,68.0,65,29.79,10.0,SE,10.4,-,N/A,,Clear,130,2013-06-25 16:35:00
11:55 AM,82.4,68.0,62,29.78,10.0,SE,16.1,-,N/A,,Clear,140,2013-06-25 16:55:00
12:15 PM,82.4,71.6,70,29.77,10.0,SSE,12.7,18.4,N/A,,Clear,150,2013-06-25 17:15:00
12:35 PM,82.4,71.6,70,29.77,10.0,SSE,10.4,-,N/A,,Clear,160,2013-06-25 17:35:00
12:55 PM,84.2,71.6,66,29.77,10.0,SSE,13.8,17.3,N/A,,Clear,160,2013-06-25 17:55:00
1:15 PM,86.0,71.6,62,29.77,10.0,South,15.0,19.6,N/A,,Clear,180,2013-06-25 18:15:00
1:35 PM,84.2,69.8,62,29.76,10.0,South,16.1,-,N/A,,Clear,180,2013-06-25 18:35:00
1:55 PM,84.2,71.6,66,29.75,10.0,South,13.8,-,N/A,,Clear,190,2013-06-25 18:55:00
2:15 PM,84.2,71.6,66,29.75,10.0,South,15.0,19.6,N/A,,Clear,180,2013-06-25 19:15:00
2:35 PM,84.2,71.6,66,29.75,10.0,South,13.8,23.0,N/A,,Scattered Clouds,190,2013-06-25 19:35:00
2:55 PM,84.2,71.6,66,29.74,10.0,South,15.0,20.7,N/A,,Clear,180,2013-06-25 19:55:00
3:15 PM,84.2,71.6,66,29.73,10.0,South,13.8,19.6,N/A,,Clear,180,2013-06-25 20:15:00
3:35 PM,86.0,73.4,66,29.72,10.0,South,12.7,20.7,N/A,,Scattered Clouds,170,2013-06-25 20:35:00
3:55 PM,87.8,71.6,58,29.73,10.0,SSW,15.0,19.6,N/A,,Scattered Clouds,200,2013-06-25 20:55:00
4:15 PM,87.8,71.6,58,29.72,10.0,SSW,12.7,23.0,N/A,,Scattered Clouds,200,2013-06-25 21:15:00
4:29 PM,87.8,71.6,58,29.72,10.0,SSW,13.8,24.2,N/A,,Scattered Clouds,200,2013-06-25 21:29:00
4:35 PM,87.8,71.6,58,29.72,10.0,South,17.3,24.2,N/A,,Scattered Clouds,190,2013-06-25 21:35:00
4:49 PM,87.8,71.6,58,29.71,10.0,SSW,15.0,24.2,N/A,,Clear,200,2013-06-25 21:49:00
4:55 PM,87.8,71.6,58,29.71,10.0,SSW,13.8,-,N/A,,Scattered Clouds,200,2013-06-25 21:55:00
5:15 PM,87.8,71.6,58,29.71,10.0,SSW,18.4,-,N/A,,Clear,210,2013-06-25 22:15:00
5:35 PM,87.8,71.6,58,29.71,10.0,South,15.0,23.0,N/A,,Clear,190,2013-06-25 22:35:00
5:55 PM,86.0,71.6,62,29.71,10.0,South,15.0,23.0,N/A,,Scattered Clouds,180,2013-06-25 22:55:00
6:15 PM,87.8,71.6,58,29.70,10.0,South,15.0,-,N/A,,Clear,180,2013-06-25 23:15:00
6:35 PM,86.0,71.6,62,29.70,10.0,South,12.7,20.7,N/A,,Clear,180,2013-06-25 23:35:00
6:55 PM,84.2,71.6,66,29.71,10.0,South,12.7,-,N/A,,Scattered Clouds,170,2013-06-25 23:55:00
7:15 PM,84.2,71.6,66,29.71,10.0,South,10.4,-,N/A,,Clear,170,2013-06-26 00:15:00
7:35 PM,84.2,73.4,70,29.71,10.0,SSE,8.1,-,N/A,,Clear,160,2013-06-26 00:35:00
7:55 PM,82.4,71.6,70,29.71,10.0,SSE,9.2,-,N/A,,Scattered Clouds,160,2013-06-26 00:55:00
8:15 PM,82.4,71.6,70,29.71,10.0,SSE,8.1,-,N/A,,Scattered Clouds,150,2013-06-26 01:15:00
8:35 PM,82.4,71.6,70,29.71,10.0,SSE,6.9,-,N/A,,Scattered Clouds,150,2013-06-26 01:35:00
8:55 PM,80.6,71.6,74,29.71,10.0,SE,6.9,-,N/A,,Scattered Clouds,140,2013-06-26 01:55:00
9:15 PM,80.6,71.6,74,29.71,10.0,SE,6.9,-,N/A,,Scattered Clouds,140,2013-06-26 02:15:00
9:35 PM,80.6,71.6,74,29.71,10.0,ESE,5.8,-,N/A,,Scattered Clouds,120,2013-06-26 02:35:00
9:55 PM,80.6,69.8,70,29.71,10.0,SE,6.9,-,N/A,,Scattered Clouds,140,2013-06-26 02:55:00
10:15 PM,78.8,71.6,78,29.72,5.0,ESE,5.8,-,N/A,,Haze,120,2013-06-26 03:15:00
10:35 PM,78.8,69.8,74,29.72,10.0,ESE,6.9,-,N/A,,Scattered Clouds,120,2013-06-26 03:35:00
10:55 PM,78.8,71.6,78,29.72,10.0,SSE,10.4,-,N/A,,Scattered Clouds,150,2013-06-26 03:55:00
11:15 PM,78.8,71.6,78,29.72,10.0,SSE,5.8,-,N/A,,Scattered Clouds,150,2013-06-26 04:15:00
11:35 PM,78.8,69.8,74,29.71,10.0,SSE,9.2,-,N/A,,Scattered Clouds,150,2013-06-26 04:35:00
11:55 PM,78.8,69.8,74,29.71,10.0,SSE,6.9,-,N/A,,Scattered Clouds,160,2013-06-26 04:55:00